Crosby, ND

5:10 AM CDT on July 24, 2016 (GMT -0500)
Crosby

Weather History for KD50 - January, 2013

Change the Weather History Date:

Saturday, January 5, 2013

  Actual Average (KISN) Record (KISN)
Temperature  
Mean Temperature 10 °F 10 °F  
Max Temperature 19 °F 21 °F 58 °F (2012)
Min Temperature 1 °F 0 °F -37 °F (2005)
Degree Days  
Heating Degree Days 55 55  
Month to date heating degree days 272  
Since 1 July heating degree days 4019  
Cooling Degree Days 0 0  
Month to date cooling degree days 0  
Year to date cooling degree days 0  
Moisture  
Dew Point 7 °F    
Average Humidity 85    
Maximum Humidity 100    
Minimum Humidity 78    
Precipitation  
Precipitation 0.00 in 0.02 in 0.45 in (1967)
Month to date precipitation 0.11  
Year to date precipitation 0.11  
Sea Level Pressure  
Sea Level Pressure 30.06 in    
Wind  
Wind Speed 14 mph (West)    
Max Wind Speed 25 mph    
Max Gust Speed 29 mph    
Visibility 10 miles    
Events Rain , Snow    
T = Trace of Precipitation, MM = Missing Value Source: NWS Daily Summary

Daily Weather History Graph

Daily Weather History Graph

Search for Another Location

Airport or City:

Trip Planner

Search our weather history database for the weather conditions in past years. The results will help you decide how hot, cold, wet, or windy it might be!

Date:

Astronomy

Jan. 05, 2013 Rise Set
Actual Time 8:46 AM CST 5:11 PM CST
Civil Twilight 8:09 AM CST 5:48 PM CST
Nautical Twilight 7:29 AM CST 6:28 PM CST
Astronomical Twilight 6:51 AM CST 7:06 PM CST
Moon 1:37 AM CST (1/5) 12:18 PM CST (1/5)
Length of Visible Light 9h 38m
Length of Day
8h 25m
Last Quarter, 44% of the Moon is Illuminated
Jan 5
Last Quarter
Jan 11
New
Jan 18
First Quarter
Jan 26
Full
Feb 3
Last Quarter

Hourly Weather History & Observations

Time (CST) Temp. Windchill Dew Point Humidity Pressure Visibility Wind Dir Wind Speed Gust Speed Precip Events Conditions
12:15 AM 14.0 °F -0.8 °F 8.6 °F 79% 29.89 in 10.0 mi WNW 13.8 mph - N/A   Clear
12:35 AM 12.2 °F -2.5 °F 8.6 °F 85% 29.89 in 10.0 mi West 12.7 mph - N/A   Clear
12:55 AM 10.4 °F -4.8 °F 6.8 °F 85% 29.90 in 10.0 mi WNW 12.7 mph - N/A   Clear
1:15 AM 10.4 °F -4.1 °F 5.0 °F 79% 29.89 in 10.0 mi WNW 11.5 mph - N/A   Clear
1:35 AM 8.6 °F -5.5 °F 5.0 °F 85% 29.90 in 10.0 mi NW 10.4 mph - N/A   Clear
1:55 AM 6.8 °F -10.7 °F 3.2 °F 85% 29.91 in 10.0 mi NW 15.0 mph - N/A   Clear
2:15 AM 5.0 °F -15.7 °F 1.4 °F 85% 29.93 in 10.0 mi NW 20.7 mph 26.5 mph N/A   Mostly Cloudy
2:35 AM 3.2 °F -19.9 °F -0.4 °F 85% 29.94 in 5.0 mi NW 25.3 mph 28.8 mph N/A   Overcast
2:55 AM 1.4 °F -21.4 °F -2.2 °F 85% 29.95 in 4.0 mi NW 23.0 mph - N/A Rain Light Freezing Rain
3:15 AM 1.4 °F -21.4 °F -2.2 °F 85% 29.97 in 5.0 mi NW 23.0 mph - N/A Rain Light Freezing Rain
3:35 AM 3.2 °F -17.6 °F -0.4 °F 85% 29.98 in 6.0 mi NW 19.6 mph 27.6 mph N/A Snow Light Snow
3:55 AM 5.0 °F -12.3 °F -0.4 °F 78% 29.99 in 9.0 mi NNW 13.8 mph - N/A   Overcast
4:15 AM 6.8 °F -12.9 °F 5.0 °F 92% 30.00 in 10.0 mi NW 19.6 mph 25.3 mph N/A   Overcast
4:35 AM 6.8 °F -13.4 °F 5.0 °F 92% 30.01 in 10.0 mi NW 20.7 mph - N/A   Overcast
4:55 AM 6.8 °F -12.9 °F 5.0 °F 92% 30.02 in 10.0 mi NW 19.6 mph 25.3 mph N/A   Overcast
5:15 AM 6.8 °F -11.8 °F 1.4 °F 79% 30.02 in 10.0 mi NW 17.3 mph - N/A   Overcast
5:35 AM 5.0 °F -13.6 °F 1.4 °F 85% 30.03 in 10.0 mi NW 16.1 mph - N/A   Overcast
5:55 AM 5.0 °F -12.3 °F 1.4 °F 85% 30.04 in 10.0 mi NW 13.8 mph - N/A Snow Light Snow
6:15 AM 5.0 °F -12.3 °F 1.4 °F 85% 30.05 in 10.0 mi NW 13.8 mph - N/A Snow Light Snow
6:35 AM 5.0 °F -13.0 °F 1.4 °F 85% 30.06 in 10.0 mi NW 15.0 mph - N/A Snow Light Snow
6:55 AM 5.0 °F -13.6 °F 1.4 °F 85% 30.08 in 10.0 mi NW 16.1 mph - N/A Snow Light Snow
7:15 AM 5.0 °F -12.3 °F 1.4 °F 85% 30.09 in 10.0 mi NW 13.8 mph - N/A   Overcast
7:35 AM 5.0 °F -13.0 °F 1.4 °F 85% 30.09 in 10.0 mi NW 15.0 mph - N/A   Overcast
7:55 AM 6.8 °F -9.3 °F 5.0 °F 92% 30.10 in 10.0 mi NW 12.7 mph - N/A Snow Light Snow
8:15 AM 8.6 °F -7.7 °F 6.8 °F 92% 30.10 in 10.0 mi NW 13.8 mph - N/A   Overcast
8:35 AM 8.6 °F -7.7 °F 6.8 °F 92% 30.10 in 10.0 mi NW 13.8 mph - N/A   Overcast
8:55 AM 6.8 °F -7.8 °F 3.2 °F 85% 30.12 in 10.0 mi NNW 10.4 mph - N/A   Mostly Cloudy
9:15 AM 5.0 °F -9.1 °F 1.4 °F 85% 30.13 in 9.0 mi NNW 9.2 mph - N/A   Partly Cloudy
9:55 AM 5.0 °F - 1.4 °F 85% 30.14 in 9.0 mi Calm Calm - N/A   Clear
10:15 AM 5.0 °F - 1.4 °F 85% 30.13 in 9.0 mi Calm Calm - N/A   Clear
10:55 AM 6.8 °F -7.8 °F 5.0 °F 92% 30.12 in 10.0 mi South 10.4 mph - N/A   Clear
11:15 AM 8.6 °F -3.7 °F 5.0 °F 85% 30.12 in 10.0 mi SSW 8.1 mph - N/A   Clear
11:55 AM 12.2 °F -0.2 °F 6.8 °F 79% 30.11 in 10.0 mi SW 9.2 mph - N/A   Scattered Clouds
12:15 PM 14.0 °F 2.0 °F 8.6 °F 79% 30.11 in 10.0 mi SSW 9.2 mph - N/A   Scattered Clouds
12:35 PM 14.0 °F 0.5 °F 8.6 °F 79% 30.10 in 10.0 mi WSW 11.5 mph - N/A   Clear
12:55 PM 15.8 °F 2.7 °F 10.4 °F 79% 30.10 in 10.0 mi SW 11.5 mph - N/A   Clear
1:15 PM 15.8 °F 2.1 °F 10.4 °F 79% 30.08 in 10.0 mi SW 12.7 mph - N/A   Partly Cloudy
1:35 PM 15.8 °F 2.7 °F 10.4 °F 79% 30.08 in 10.0 mi SW 11.5 mph - N/A   Clear
1:55 PM 15.8 °F 1.4 °F 10.4 °F 79% 30.09 in 10.0 mi WSW 13.8 mph - N/A   Clear
2:15 PM 17.6 °F 2.2 °F 12.2 °F 79% 30.09 in 10.0 mi SW 17.3 mph - N/A   Clear
2:35 PM 17.6 °F 3.2 °F 14.0 °F 86% 30.07 in 10.0 mi SW 15.0 mph - N/A   Scattered Clouds
2:55 PM 17.6 °F 3.2 °F 14.0 °F 86% 30.07 in 10.0 mi SW 15.0 mph - N/A   Overcast
3:15 PM 17.6 °F 3.2 °F 14.0 °F 86% 30.06 in 10.0 mi SSW 15.0 mph - N/A   Overcast
3:35 PM 17.6 °F 4.3 °F 14.0 °F 86% 30.06 in 10.0 mi SW 12.7 mph - N/A   Overcast
3:55 PM 19.4 °F 6.0 °F 14.0 °F 80% 30.07 in 10.0 mi SW 13.8 mph - N/A   Overcast
4:15 PM 19.4 °F 6.6 °F 14.0 °F 80% 30.08 in 10.0 mi SW 12.7 mph - N/A   Scattered Clouds
4:55 PM 15.8 °F 6.1 °F 10.4 °F 79% 30.07 in 10.0 mi SW 6.9 mph - N/A   Clear
5:15 PM 17.6 °F 3.2 °F 12.2 °F 79% 30.08 in 10.0 mi WSW 15.0 mph - N/A   Clear
5:35 PM 17.6 °F 3.7 °F 12.2 °F 79% 30.07 in 10.0 mi WSW 13.8 mph - N/A   Clear
5:55 PM 15.8 °F 2.1 °F 10.4 °F 79% 30.08 in 10.0 mi WSW 12.7 mph - N/A   Clear
6:15 PM 14.0 °F 0.5 °F 10.4 °F 86% 30.09 in 10.0 mi SW 11.5 mph - N/A   Clear
6:35 PM 14.0 °F 2.0 °F 10.4 °F 86% 30.08 in 10.0 mi SW 9.2 mph - N/A   Clear
6:55 PM 14.0 °F 2.0 °F 10.4 °F 86% 30.08 in 10.0 mi SW 9.2 mph - N/A   Clear
7:15 PM 14.0 °F 3.9 °F 8.6 °F 79% 30.09 in 10.0 mi SW 6.9 mph - N/A   Clear
7:55 PM 17.6 °F 5.0 °F 14.0 °F 86% 30.09 in 10.0 mi West 11.5 mph - N/A   Clear
8:15 PM 17.6 °F 3.7 °F 14.0 °F 86% 30.09 in 10.0 mi West 13.8 mph - N/A   Clear
8:35 PM 19.4 °F 6.0 °F 14.0 °F 80% 30.08 in 10.0 mi WNW 13.8 mph - N/A   Clear
8:55 PM 17.6 °F 5.0 °F 14.0 °F 86% 30.10 in 10.0 mi WNW 11.5 mph - N/A   Clear
9:15 PM 15.8 °F 5.1 °F 12.2 °F 86% 30.11 in 10.0 mi WNW 8.1 mph - N/A   Clear
9:35 PM 15.8 °F 5.1 °F 12.2 °F 86% 30.11 in 10.0 mi WNW 8.1 mph - N/A   Partly Cloudy
9:55 PM 14.0 °F 2.0 °F 10.4 °F 86% 30.11 in 10.0 mi West 9.2 mph - N/A   Partly Cloudy
10:15 PM 14.0 °F -0.2 °F 10.4 °F 86% 30.11 in 10.0 mi WNW 12.7 mph - N/A   Clear
10:35 PM 14.0 °F 1.2 °F 10.4 °F 86% 30.11 in 10.0 mi NW 10.4 mph - N/A   Clear
10:55 PM 12.2 °F 0.7 °F 8.6 °F 85% 30.12 in 10.0 mi WNW 8.1 mph - N/A   Clear
11:15 PM 10.4 °F -3.3 °F 8.6 °F 92% 30.12 in 10.0 mi NNW 10.4 mph - N/A   Clear
11:35 PM 14.0 °F 2.9 °F 10.4 °F 86% 30.12 in 10.0 mi NW 8.1 mph - N/A   Mostly Cloudy
11:55 PM 14.0 °F 1.2 °F 14.0 °F 100% 30.12 in 10.0 mi NNW 10.4 mph - N/A   Overcast